Location: ??????
(41.3747°N, 22.5491°E)
Time: 06:18:03
(UTC+00:00)

CZ-4B DEB - Pass Details

Date: 01 December 2020
Orbit: 841 x 861 km, 99.1° (Epoch: 20 January)

Event Time Altitude Azimuth Distance (km) Brightness Sun altitude
Rises 15:32:00 0° 167° (SSE) 3,398 7.5 -6.0°
Reaches altitude 10° 15:34:22 10° 169° (SSE) 2,464 6.8 -6.4°
Maximum altitude 15:39:50 80° 256° (WSW) 862 4.4 -7.4°
Drops below altitude 10° 15:45:20 10° 344° (NNW) 2,470 6.6 -8.3°
Sets 15:47:42 0° 345° (NNW) 3,407 7.3 -8.7°
